Wind_Speed
23 23 24 25 24 22 23 22 22 22 22 21 20 21 21 21 22 21 20 20 20 20 19 19 19 19 19 19 19 18 18 18 19 19 19 19 19 19 19 20 21 21 22 22
25 25 25 25 24 23 24 24 24 24 23 22 23 22 23 23 22 21 21 21 20 20 19 19 20 20 19 19 19 20 20 19 20 20 21 21 21 21 21 22 23 23 23 24
27 26 26 26 25 25 25 25 24 25 24 24 24 24 24 24 23 22 22 22 22 21 21 21 22 21 21 21 21 21 20 21 21 22 22 22 23 23 23 24 24 24 24 25
27 26 28 26 26 28 28 27 26 26 26 26 25 26 25 25 24 24 22 23 23 23 23 23 23 23 23 23 22 22 22 23 23 23 24 24 24 25 25 25 26 26 26 27
29 28 27 26 26 27 28 28 28 27 27 27 26 26 27 26 26 26 24 23 24 24 24 24 24 24 24 24 24 24 24 25 25 25 25 26 26 27 27 27 27 28 28 29
30 30 29 26 26 27 28 30 29 29 28 27 26 27 27 28 27 27 26 26 26 25 26 26 26 25 25 25 25 26 26 27 27 26 27 27 27 27 27 28 29 29 30 30
32 31 30 29 27 27 29 30 29 28 28 28 28 28 28 28 28 27 27 27 27 27 28 27 27 26 26 26 26 27 28 28 28 27 27 27 28 28 29 29 30 30 31 31
33 34 33 30 29 30 30 30 29 28 28 28 28 28 28 29 28 28 28 28 28 28 28 28 28 27 26 27 27 28 28 28 28 28 28 28 29 29 30 30 31 31 31 32
34 34 33 31 30 31 31 31 30 29 28 29 30 30 30 30 30 30 30 30 30 30 29 29 28 28 27 28 29 29 29 28 28 29 29 29 30 30 30 31 31 32 32 32
33 35 34 33 32 31 31 31 31 31 31 31 32 31 32 32 32 32 32 32 32 31 30 30 30 30 30 30 30 29 30 30 30 30 30 30 30 31 31 31 32 32 32 32
33 33 34 34 33 32 31 31 32 32 32 33 33 33 33 32 32 32 32 32 31 31 31 31 31 30 30 29 30 30 30 30 30 30 30 31 31 31 32 31 31 31 31 32
34 34 35 34 33 32 31 31 32 33 33 34 33 33 33 32 31 31 31 32 31 31 31 32 31 30 30 30 30 30 31 30 30 31 31 31 31 32 32 32 32 32 31 31
33 34 34 34 34 32 31 31 32 32 32 32 33 33 32 32 31 31 31 31 31 30 31 31 31 31 30 30 31 31 31 30 30 30 30 30 30 31 31 32 31 31 31 31
33 33 33 33 33 34 33 32 32 31 31 32 33 33 32 31 31 31 30 30 30 30 30 30 30 30 30 30 30 30 30 30 30 29 29 30 31 31 31 31 31 31 31 30
32 32 33 32 31 31 32 32 31 29 28 29 29 30 30 30 29 28 28 29 29 29 29 29 29 29 30 30 29 30 30 29 30 30 30 31 31 31 32 31 31 31 30 30
31 31 31 31 30 30 30 30 29 28 27 28 29 29 29 29 29 28 28 28 28 28 28 28 28 28 29 29 29 30 31 30 30 30 31 31 32 32 32 31 31 31 31 30
31 31 31 31 30 29 28 27 26 26 26 26 27 28 28 28 27 27 28 28 27 27 27 27 27 27 28 29 29 30 30 30 30 31 31 31 32 32 32 31 30 30 30 30
30 31 31 30 29 28 28 27 26 26 26 27 27 27 27 27 26 26 26 26 26 27 27 27 27 27 28 28 29 30 29 29 30 30 31 31 31 32 31 30 30 30 30 30
28 28 28 29 28 28 27 27 26 27 27 27 27 26 26 25 25 24 25 25 26 27 27 27 27 27 28 28 28 29 29 28 29 30 30 30 31 30 29 29 29 29 29 30
26 26 27 27 27 27 26 26 26 26 26 26 26 26 25 25 25 26 26 26 26 27 27 27 27 26 27 27 27 28 28 28 29 29 29 30 30 29 29 29 28 28 29 30
25 25 25 26 26 26 25 25 25 25 25 26 26 26 25 25 25 25 25 26 26 26 25 26 26 26 26 27 27 27 28 28 29 29 29 29 28 28 28 28 28 28 28 28
25 24 25 26 26 26 26 25 25 25 24 25 25 25 25 24 25 25 26 26 25 24 25 25 26 26 27 27 28 28 28 28 28 28 28 28 28 27 27 27 27 27 27 27
23 24 24 25 26 26 25 25 24 23 24 24 24 24 24 24 24 25 25 24 24 24 24 24 25 26 26 26 27 27 27 26 26 27 27 27 27 28 28 28 27 27 27 27
22 23 23 24 24 24 23 23 23 23 23 23 24 24 24 25 25 25 25 24 24 24 24 24 24 24 25 25 26 26 25 25 25 26 27 28 28 28 27 28 28 28 27 27
20 20 21 21 22 22 22 22 22 22 22 23 23 23 24 24 24 24 24 24 24 24 24 24 24 24 24 24 24 23 23 24 25 26 26 26 26 25 26 26 26 26 27 28
17 18 19 20 19 20 20 20 21 21 21 21 22 22 22 23 24 23 23 23 23 23 23 23 23 23 23 23 23 23 23 24 24 24 24 24 24 24 25 25 26 26 27 27
15 15 16 17 17 17 18 18 19 20 20 20 21 21 21 22 22 22 22 21 22 22 22 22 22 22 22 22 22 22 22 22 22 22 23 23 24 24 24 25 25 26 27 26
Wind_Direction
242 238 238 241 243 244 248 253 258 264 269 273 277 282 286 290 294 299 300 301 299 299 298 297 296 294 293 294 295 295 296 296 296 295 296 297 297 297 296 295 294 294 293 293
244 241 240 242 242 243 245 249 255 261 267 273 277 281 285 289 294 297 299 299 297 297 296 297 297 294 292 293 293 295 295 295 294 294 294 296 297 297 296 294 294 294 293 293
248 246 243 243 243 242 243 247 252 257 262 270 276 280 282 286 290 295 297 295 295 296 295 298 299 298 294 293 292 294 294 294 294 294 294 295 295 295 295 295 294 294 293 292
250 248 246 245 245 246 247 249 251 256 261 265 272 275 278 282 285 288 291 292 294 293 293 295 295 294 294 293 292 292 292 292 292 293 293 294 294 294 294 293 294 294 293 293
253 252 250 246 246 249 250 252 253 257 262 265 271 275 277 279 281 283 285 289 291 292 292 293 293 292 292 290 290 290 291 292 291 292 292 292 292 293 293 293 293 293 294 293
251 252 251 249 249 251 254 255 257 259 263 266 270 273 275 277 279 281 283 287 289 289 291 290 290 289 290 290 289 289 289 290 290 291 291 291 292 292 293 292 292 293 293 293
249 251 252 250 250 252 254 258 259 261 264 266 266 270 273 276 276 278 280 285 287 291 292 291 290 288 289 289 289 289 289 289 289 289 291 292 292 293 293 293 292 293 293 293
248 248 250 253 252 253 256 259 260 261 263 265 267 269 273 275 277 278 281 284 286 287 289 290 289 288 288 287 288 288 289 290 290 290 291 291 292 294 294 295 295 294 293 293
249 251 253 253 255 256 256 259 261 262 264 264 267 269 272 276 279 280 281 281 282 283 285 286 286 286 285 286 287 288 289 291 291 290 290 291 293 294 295 296 296 295 295 294
250 251 253 253 254 256 256 258 260 262 265 266 268 271 273 275 277 278 279 281 281 281 282 282 283 287 286 286 286 287 289 291 292 291 291 292 294 294 296 297 297 296 295 294
250 252 253 255 256 257 259 259 259 260 264 267 270 273 274 275 275 277 278 278 280 282 282 281 282 284 284 284 286 287 289 290 290 291 292 292 294 295 296 297 297 296 295 294
249 251 252 254 255 258 259 260 260 261 262 265 268 271 272 273 275 276 276 276 278 280 281 280 279 282 283 285 286 287 288 290 290 291 292 293 294 295 296 296 295 294 294 294
249 250 253 254 256 257 257 258 259 261 262 263 266 269 272 273 275 275 276 277 277 278 279 280 280 281 283 285 287 288 289 289 289 290 291 292 294 295 295 295 296 296 295 294
251 253 253 254 255 257 259 260 260 261 261 264 267 269 271 274 275 275 275 277 278 279 280 280 280 281 283 285 287 289 290 288 288 290 292 293 294 294 295 295 295 295 295 295
250 252 253 256 257 259 261 261 260 262 266 268 272 271 272 273 273 273 274 276 277 278 278 278 279 280 282 283 286 288 289 289 290 290 292 293 294 294 295 294 294 294 294 294
250 251 253 255 258 259 261 264 263 266 269 271 272 274 275 274 275 276 277 277 277 277 278 278 279 281 282 283 285 287 288 289 289 290 292 293 294 295 295 295 295 295 294 293
250 252 255 257 259 261 264 266 266 267 267 270 271 272 275 276 276 277 278 278 277 278 279 279 280 281 282 283 285 287 288 289 290 291 293 294 295 296 296 296 296 296 295 294
252 252 253 256 260 263 265 265 265 265 267 268 270 271 272 273 273 276 278 279 279 279 282 283 282 282 283 284 286 287 288 290 291 292 294 295 295 296 296 295 295 295 295 295
254 254 254 256 259 262 265 267 266 265 267 269 270 271 273 273 273 275 278 279 280 280 282 283 284 285 285 286 288 288 289 290 292 294 295 295 296 296 296 295 294 294 294 294
255 255 255 256 258 260 261 264 265 266 268 270 272 274 275 276 277 278 279 281 282 282 283 284 284 286 288 289 289 289 290 290 291 293 295 296 298 297 296 296 296 296 296 296
254 254 254 255 257 258 259 262 264 266 268 270 271 272 274 276 278 279 280 282 283 283 284 285 285 286 287 288 289 289 290 291 292 293 294 297 298 299 299 297 299 300 299 299
255 254 254 254 255 258 260 263 265 265 265 268 271 272 273 274 277 279 282 283 284 284 285 286 287 287 288 288 288 290 291 292 293 295 296 298 297 297 298 299 300 301 302 301
256 256 254 253 254 257 260 261 262 263 264 267 268 270 273 275 277 280 282 283 284 284 284 285 287 288 289 289 290 291 293 293 295 297 298 299 299 298 299 300 301 302 304 303
256 255 254 253 252 255 258 259 261 263 265 268 269 271 273 274 276 278 281 283 283 283 283 284 286 288 290 292 293 294 294 293 295 298 300 301 300 300 301 301 302 302 304 305
256 255 254 252 252 254 256 259 263 265 267 269 271 271 274 277 279 280 280 280 281 283 284 285 288 290 290 292 295 296 296 295 297 299 301 302 302 302 302 303 305 304 304 305
257 256 253 251 252 255 258 260 262 264 267 269 272 274 277 280 280 279 280 280 281 282 283 284 287 290 291 293 295 295 296 298 299 300 302 304 304 304 305 306 307 308 308 308
257 254 250 250 252 256 259 261 263 266 270 272 273 276 279 281 281 280 281 281 282 282 283 284 286 289 291 293 293 295 296 298 300 301 303 305 306 306 306 307 309 310 311 310
Height
5871 5873 5874 5875 5876 5877 5878 5878 5878 5878 5878 5878 5879 5878 5878 5877 5877 5876 5876 5875 5874 5873 5872 5870 5869 5868 5866 5864 5863 5861 5859 5858 5856 5854 5852 5850 5848 5846 5844 5842 5840 5838 5837 5835
5865 5867 5868 5869 5871 5871 5872 5873 5873 5873 5874 5874 5873 5873 5873 5872 5872 5871 5871 5870 5869 5868 5867 5865 5864 5862 5861 5859 5857 5855 5854 5852 5850 5848 5846 5844 5842 5840 5838 5836 5834 5832 5830 5828
5858 5860 5861 5863 5864 5865 5866 5867 5868 5868 5870 5869 5869 5868 5868 5868 5867 5866 5865 5865 5864 5863 5861 5860 5859 5857 5855 5853 5851 5849 5848 5846 5844 5842 5840 5838 5836 5834 5832 5829 5827 5825 5823 5821
5851 5853 5854 5859 5858 5859 5860 5861 5862 5862 5863 5863 5863 5863 5862 5862 5862 5861 5859 5858 5857 5856 5855 5854 5852 5851 5849 5847 5845 5843 5842 5840 5838 5836 5834 5832 5830 5827 5825 5823 5821 5818 5816 5814
5843 5845 5846 5850 5851 5851 5852 5854 5855 5856 5856 5856 5856 5856 5856 5855 5855 5854 5853 5852 5851 5850 5848 5847 5846 5844 5843 5841 5839 5837 5835 5833 5831 5829 5827 5824 5822 5820 5818 5815 5813 5810 5808 5806
5836 5837 5838 5843 5844 5844 5846 5846 5848 5849 5849 5849 5850 5850 5850 5849 5848 5847 5846 5846 5845 5843 5841 5840 5838 5837 5835 5834 5832 5830 5828 5826 5823 5821 5819 5816 5814 5812 5809 5807 5804 5802 5799 5797
5828 5829 5830 5834 5836 5838 5839 5840 5841 5842 5842 5842 5843 5843 5843 5842 5842 5841 5840 5839 5837 5836 5835 5833 5831 5829 5827 5826 5824 5822 5820 5818 5815 5813 5811 5808 5806 5803 5801 5798 5796 5793 5791 5788
5820 5821 5825 5827 5828 5831 5831 5832 5833 5834 5835 5835 5835 5835 5835 5835 5834 5833 5833 5831 5830 5828 5827 5825 5823 5822 5820 5818 5816 5814 5812 5809 5807 5805 5802 5800 5798 5795 5792 5789 5787 5784 5781 5779
5813 5816 5817 5819 5821 5822 5823 5824 5825 5826 5827 5827 5827 5827 5827 5826 5826 5825 5824 5823 5822 5820 5819 5817 5815 5814 5812 5810 5808 5806 5804 5801 5799 5796 5794 5791 5789 5786 5784 5781 5778 5775 5772 5769
5804 5806 5807 5809 5811 5813 5815 5816 5818 5818 5819 5819 5819 5819 5818 5818 5817 5816 5815 5814 5813 5812 5810 5809 5808 5806 5804 5802 5799 5797 5795 5793 5790 5788 5785 5783 5780 5778 5775 5772 5769 5766 5763 5760
5796 5798 5799 5801 5803 5805 5807 5808 5809 5809 5810 5810 5810 5810 5809 5809 5808 5807 5807 5805 5804 5803 5801 5800 5799 5797 5795 5793 5791 5789 5787 5784 5782 5779 5777 5774 5772 5769 5766 5763 5760 5756 5753 5750
5788 5790 5791 5793 5795 5796 5798 5799 5799 5800 5801 5801 5800 5800 5800 5799 5799 5798 5797 5796 5794 5793 5792 5791 5790 5788 5787 5785 5782 5780 5778 5776 5773 5771 5768 5766 5763 5760 5756 5754 5751 5747 5744 5741
5779 5781 5782 5783 5785 5787 5788 5789 5790 5791 5791 5791 5791 5791 5791 5790 5789 5788 5787 5786 5785 5784 5783 5782 5780 5779 5778 5776 5774 5771 5769 5767 5765 5762 5759 5757 5754 5751 5748 5745 5741 5738 5735 5732
5770 5771 5773 5775 5776 5777 5778 5780 5781 5782 5782 5782 5782 5781 5781 5781 5780 5779 5778 5777 5776 5775 5774 5773 5771 5770 5769 5767 5765 5763 5760 5758 5756 5753 5751 5748 5745 5742 5739 5736 5733 5730 5727 5723
5761 5763 5764 5765 5766 5767 5769 5771 5772 5772 5772 5773 5773 5771 5771 5772 5771 5770 5769 5768 5767 5766 5765 5764 5762 5761 5760 5758 5756 5754 5751 5749 5747 5745 5742 5739 5736 5733 5730 5727 5724 5721 5718 5715
5752 5753 5754 5756 5757 5759 5760 5762 5763 5764 5764 5765 5765 5764 5764 5763 5762 5762 5761 5760 5759 5758 5757 5755 5753 5752 5751 5749 5747 5745 5743 5740 5738 5736 5733 5730 5727 5723 5720 5717 5714 5711 5708 5706
5743 5745 5747 5748 5749 5750 5752 5753 5755 5756 5756 5756 5756 5756 5756 5755 5754 5754 5753 5752 5751 5750 5748 5747 5745 5743 5741 5740 5738 5736 5734 5732 5729 5727 5724 5721 5718 5714 5711 5708 5705 5702 5699 5697
5735 5737 5738 5740 5741 5743 5744 5745 5746 5747 5748 5748 5748 5748 5748 5747 5746 5745 5744 5743 5742 5741 5740 5738 5737 5735 5733 5731 5730 5728 5725 5723 5720 5718 5715 5712 5709 5705 5702 5699 5696 5693 5691 5688
5727 5729 5731 5732 5733 5735 5736 5737 5738 5739 5739 5739 5740 5740 5739 5739 5738 5737 5736 5735 5734 5733 5732 5730 5728 5726 5724 5723 5721 5719 5717 5714 5712 5709 5706 5703 5700 5696 5693 5690 5687 5684 5682 5679
5720 5722 5723 5725 5726 5727 5728 5729 5730 5731 5731 5731 5731 5731 5731 5730 5729 5728 5728 5727 5725 5724 5723 5721 5720 5718 5716 5714 5712 5710 5708 5706 5703 5701 5698 5695 5691 5688 5684 5681 5678 5675 5672 5669
5712 5713 5714 5716 5717 5719 5720 5721 5722 5723 5723 5723 5723 5723 5723 5722 5721 5720 5719 5719 5717 5715 5714 5712 5711 5710 5708 5706 5704 5702 5699 5697 5695 5692 5689 5686 5682 5679 5676 5673 5670 5666 5663 5660
5702 5704 5705 5707 5709 5711 5712 5713 5714 5715 5715 5716 5715 5715 5715 5714 5713 5712 5711 5710 5709 5707 5706 5704 5703 5701 5699 5698 5695 5693 5691 5688 5685 5683 5680 5677 5674 5671 5668 5665 5661 5658 5655 5652
5694 5696 5697 5699 5701 5703 5704 5706 5707 5707 5708 5708 5708 5707 5707 5706 5705 5704 5704 5702 5701 5699 5698 5696 5694 5693 5691 5689 5687 5684 5682 5679 5677 5674 5671 5668 5665 5662 5659 5656 5653 5650 5647 5644
5687 5689 5690 5691 5693 5695 5697 5698 5699 5700 5700 5701 5700 5700 5699 5699 5698 5697 5696 5694 5693 5692 5690 5688 5687 5685 5683 5680 5678 5676 5673 5671 5669 5666 5663 5660 5657 5654 5651 5648 5645 5642 5638 5635
5681 5682 5683 5685 5687 5689 5690 5691 5692 5693 5693 5693 5693 5693 5692 5691 5690 5689 5688 5686 5685 5684 5682 5681 5679 5677 5675 5673 5670 5668 5665 5663 5661 5658 5655 5652 5649 5646 5643 5640 5637 5634 5630 5627
5675 5676 5678 5679 5681 5682 5683 5684 5685 5686 5686 5686 5686 5685 5684 5683 5682 5681 5680 5678 5677 5676 5674 5673 5671 5669 5667 5665 5663 5661 5658 5655 5653 5650 5648 5644 5642 5639 5636 5633 5630 5626 5623 5619
5671 5672 5673 5674 5675 5676 5677 5678 5679 5679 5679 5679 5679 5678 5677 5676 5674 5673 5672 5671 5669 5668 5667 5665 5664 5662 5660 5658 5656 5653 5651 5648 5646 5643 5641 5638 5635 5632 5629 5626 5623 5619 5616 5612